Regional Weather Roundup
Issued by NWS

Home | Current Version | Previous Version | Text Only | Print | Product List | Glossary On
Versions: 1 2 3 4 5 6 7 8 9 10 11 12 13 14 15 16 17 18 19 20 21 22 23 24 25 26 27 28 29 30 31 32 33 34 35 36 37 38 39 40 41 42 43 44 45 46 47 48 49 50
000
ASUS43 KFSD 251102
RWRSD

WEATHER ROUNDUP FOR SOUTH DAKOTA
NATIONAL WEATHER SERVICE SIOUX FALLS SD
600 AM CDT SUN SEP 25 2016

NOTE: "FAIR" INDICATES FEW OR NO CLOUDS BELOW 12,000 FEET WITH NO
SIGNIFICANT WEATHER AND/OR OBSTRUCTIONS TO VISIBILITY.


SDZ001>005-009-010-012>017-251200-
NORTHWEST AND NORTH CENTRAL SOUTH DAKOTA

CITY           SKY/WX    TMP DP  RH WIND       PRES   REMARKS
BUFFALO          N/A     46  40  79 W22       30.11R
FAITH            N/A     52  46  80 NW28G39   30.08R
MOBRIDGE       CLOUDY    56  47  71 NW20G38   29.93R
$$

SDZ012>016-024>037-041>051-057-063-072>074-251200-
SOUTHWEST AND SOUTH CENTRAL SOUTH DAKOTA

CITY           SKY/WX    TMP DP  RH WIND       PRES   REMARKS
RAPID CTY ARPT CLEAR     51  37  58 NW29G40   30.21R
PIERRE         CLOUDY    57  44  62 NW31G43   30.01R
CUSTER         PTCLDY    43  31  62 NW9G23    30.25R
ELLSWORTH AFB  CLEAR     50  39  64 NW24G32   30.20R
PHILIP         CLOUDY    55  44  66 NW21G30   30.14R
PINE RIDGE     CLEAR     48  43  82 W8        30.23R
WINNER         CLOUDY    58  45  62 W20G31    30.08R
$$

SDZ004>011-016>023-039-040-251200-
NORTHEAST SOUTH DAKOTA

CITY           SKY/WX    TMP DP  RH WIND       PRES   REMARKS
ABERDEEN       CLOUDY    57  51  80 SW18      29.83R
WATERTOWN      MOCLDY    53  48  83 SW17G24   29.87F
SISSETON         N/A     55  48  77 W14G23    29.80F
$$

SDZ017-020-022-023-036>040-048>070-251200-
SOUTHEAST SOUTH DAKOTA

CITY           SKY/WX    TMP DP  RH WIND       PRES   REMARKS
SIOUX FALLS    CLEAR     54  46  74 VRB7      29.98S
HURON          CLOUDY    58  48  69 W15G26    29.93R
CHAMBERLAIN    CLOUDY    60  46  59 NW20G30   30.04R
MITCHELL       CLOUDY    58  47  66 W14G22    29.98S
YANKTON        CLEAR     55  45  67 W14       30.02S
$$

ABBREVIATIONS USED IN REMARKS
   TC - TEMPERATURE IN CELSIUS
  WCI - WIND CHILL INDEX
   HX - HEAT INDEX
  VSB - VISIBILITY





USA.gov is the U.S. government's official web portal to all federal, state and local government web resources and services.